Probability
42 45 45 45 39 39 39 32 35 42 45 42 45 42 42 42 48 52 52 45 39 35 35 39 35 39 42 42 35 32 29 32 29 29 32 29 26 23 19 19 23 23 13
35 42 42 48 42 39 39 39 39 39 39 42 42 39 39 39 39 45 45 48 42 42 32 35 35 35 39 39 45 35 35 35 29 29 32 26 26 26 23 23 16 19 19
39 35 39 32 35 39 39 35 39 39 35 39 45 42 39 39 39 45 42 42 35 29 29 32 32 32 35 35 42 39 42 26 35 29 19 26 19 23 26 26 19 23 16
35 32 35 35 35 35 35 32 35 35 35 35 39 39 39 39 39 32 32 35 35 32 29 29 29 32 29 32 29 29 29 26 26 23 23 16 19 16 16 19 13 16 16
35 39 39 42 42 35 35 35 32 32 29 32 32 32 35 32 29 32 32 32 32 29 29 29 29 23 19 16 16 19 19 16 16 16 19 16 16 13 13 16 10 13 16
35 32 39 45 45 39 42 42 39 39 39 32 32 29 26 23 19 19 26 29 29 29 26 23 23 19 16 6 6 6 13 16 16 16 16 16 16 16 13 13 13 16 16
35 35 35 35 39 35 32 39 35 35 29 32 29 26 26 23 10 13 10 16 32 26 23 19 19 16 16 16 13 3 0 3 6 13 16 16 16 16 16 13 16 16 16
32 32 29 32 32 35 32 35 35 32 32 29 26 23 23 19 10 6 3 10 23 26 23 23 19 16 16 13 13 13 16 13 13 13 13 13 16 16 16 13 16 16 19
29 39 35 35 35 39 35 35 39 35 29 26 23 23 23 16 3 3 0 16 19 23 23 16 13 16 10 6 13 13 13 13 3 0 3 3 6 6 6 10 13 13 13
32 39 35 35 39 39 39 39 39 42 32 23 19 23 23 16 3 3 0 16 16 23 19 16 10 10 10 3 13 13 13 13 13 3 3 3 6 6 0 6 13 13 10
29 39 39 35 35 42 45 39 42 39 26 29 19 23 19 16 3 3 0 3 13 13 13 16 16 6 0 0 0 10 13 10 13 13 10 10 10 10 6 10 10 10 10
39 42 39 32 32 29 42 42 39 32 29 26 19 13 16 10 3 3 0 0 3 6 6 10 13 3 0 0 0 3 6 3 10 10 10 10 10 10 10 13 13 13 13
42 45 45 39 35 42 42 32 39 26 19 19 16 13 10 13 6 3 0 0 0 0 6 6 3 0 0 0 0 0 0 3 6 10 10 6 10 10 10 10 13 19 16
42 42 42 39 32 32 42 26 16 13 13 13 10 13 10 6 6 3 3 0 0 0 0 0 0 0 0 0 3 0 0 6 6 6 6 10 10 6 6 10 10 13 13
39 35 32 29 23 32 19 26 13 16 10 10 13 10 6 10 3 0 3 0 0 0 0 0 0 6 3 3 3 3 3 6 3 6 6 6 3 6 6 10 10 6 6
39 32 23 19 23 13 13 10 3 3 0 0 0 0 0 0 0 0 0 0 0 0 0 0 0 3 3 6 6 6 6 6 6 6 6 6 6 6 6 6 6 6 6
35 26 23 23 16 10 10 13 6 3 0 0 0 0 0 0 0 0 0 0 0 0 0 0 0 3 3 3 6 6 6 6 6 6 3 6 6 6 6 6 6 6 6
29 16 16 19 16 10 10 10 6 6 6 0 0 0 0 0 0 0 0 0 0 0 0 0 0 0 3 6 10 10 3 3 6 6 6 6 6 3 3 3 3 3 3
23 19 19 23 13 6 6 6 6 10 10 6 3 0 0 0 0 0 0 0 0 0 0 0 0 0 0 0 6 10 10 3 3 6 3 6 6 3 3 3 3 0 0
13 10 6 13 10 3 6 6 10 10 10 6 3 3 0 0 0 0 0 0 0 0 0 0 0 0 0 0 3 6 10 3 3 3 3 3 6 6 6 6 3 0 0
10 10 6 6 3 6 3 10 10 10 10 10 6 3 0 0 0 0 0 0 0 0 0 0 0 0 0 0 0 0 6 6 3 3 3 3 3 3 3 3 0 0 0
13 13 10 6 6 3 3 6 6 6 6 10 6 3 0 0 0 0 0 0 0 0 0 0 0 0 0 0 3 6 3 6 6 3 3 0 0 3 3 3 0 0 0
10 6 6 6 10 3 0 3 3 3 6 6 6 6 0 0 0 0 0 0 0 0 0 0 0 0 0 0 3 3 3 0 3 3 3 6 3 0 0 0 0 0 0
6 6 6 6 6 6 3 3 6 3 3 10 10 6 6 3 3 3 0 0 0 0 0 0 0 0 0 0 3 3 3 0 3 3 0 0 0 0 0 0 0 0 0
3 3 3 3 6 6 3 3 3 6 6 3 6 6 6 6 3 0 0 0 0 0 0 0 0 0 0 0 0 3 0 0 0 0 0 0 0 0 0 0 0 0 0
3 3 3 3 6 6 3 3 6 6 6 6 6 10 10 10 10 3 0 0 0 0 0 0 0 0 0 0 0 0 0 0 0 0 0 0 0 0 0 0 0 0 0
Height
5876 5875 5873 5872 5870 5869 5867 5866 5864 5862 5861 5860 5859 5857 5856 5855 5855 5854 5853 5853 5852 5851 5850 5849 5848 5848 5847 5846 5845 5845 5844 5843 5843 5844 5843 5843 5842 5842 5842 5841 5841 5840 5840
5873 5871 5870 5869 5867 5866 5864 5862 5861 5859 5857 5856 5855 5853 5852 5852 5851 5850 5849 5848 5847 5847 5846 5845 5844 5843 5842 5841 5840 5839 5838 5838 5838 5837 5837 5836 5836 5836 5835 5835 5834 5834 5833
5869 5868 5867 5865 5864 5862 5860 5858 5857 5855 5853 5852 5850 5849 5848 5847 5846 5845 5844 5843 5843 5842 5841 5840 5839 5837 5836 5835 5834 5833 5832 5832 5831 5831 5830 5829 5829 5828 5828 5827 5827 5827 5826
5866 5865 5863 5861 5859 5857 5856 5854 5852 5851 5849 5847 5846 5844 5843 5842 5841 5840 5839 5838 5837 5836 5835 5834 5833 5832 5830 5829 5828 5827 5826 5825 5824 5824 5823 5822 5822 5821 5820 5820 5820 5819 5818
5862 5861 5859 5857 5855 5853 5851 5849 5848 5846 5844 5842 5840 5839 5837 5836 5835 5833 5832 5831 5830 5829 5828 5827 5826 5825 5824 5822 5821 5820 5819 5818 5817 5816 5815 5815 5814 5813 5813 5812 5812 5811 5810
5858 5856 5854 5852 5850 5848 5846 5844 5842 5840 5838 5837 5835 5833 5831 5829 5828 5827 5825 5824 5823 5822 5821 5819 5818 5817 5816 5815 5813 5812 5811 5810 5809 5808 5807 5807 5806 5805 5804 5803 5803 5803 5803
5853 5851 5849 5847 5845 5843 5841 5839 5836 5834 5832 5831 5828 5826 5824 5823 5821 5819 5817 5816 5815 5815 5813 5812 5811 5810 5808 5807 5805 5804 5803 5801 5801 5800 5799 5798 5797 5797 5796 5795 5794 5794 5794
5847 5845 5843 5841 5839 5837 5835 5832 5830 5828 5826 5824 5822 5819 5817 5816 5814 5812 5810 5808 5807 5806 5805 5804 5803 5802 5800 5799 5797 5795 5794 5793 5792 5791 5790 5789 5788 5788 5787 5787 5786 5785 5784
5841 5839 5837 5835 5833 5830 5828 5826 5824 5821 5819 5817 5815 5813 5811 5808 5806 5804 5802 5800 5799 5798 5797 5796 5795 5793 5792 5790 5789 5787 5786 5784 5782 5781 5780 5779 5779 5778 5778 5777 5777 5776 5776
5835 5833 5830 5828 5826 5824 5822 5819 5817 5815 5812 5810 5808 5806 5803 5801 5799 5796 5794 5793 5792 5790 5789 5788 5786 5785 5783 5781 5780 5778 5777 5775 5773 5772 5771 5770 5769 5768 5768 5768 5767 5767 5766
5828 5826 5824 5821 5819 5817 5814 5812 5810 5808 5805 5803 5801 5799 5796 5794 5791 5789 5787 5785 5784 5782 5781 5780 5778 5776 5774 5772 5770 5769 5767 5765 5764 5762 5761 5760 5759 5759 5758 5758 5757 5757 5756
5821 5819 5817 5814 5812 5809 5807 5805 5803 5800 5798 5795 5793 5791 5789 5787 5784 5782 5780 5778 5776 5774 5773 5771 5769 5767 5765 5763 5761 5759 5757 5756 5755 5753 5752 5750 5749 5748 5748 5748 5747 5747 5746
5814 5812 5809 5807 5805 5803 5801 5798 5796 5793 5790 5788 5785 5783 5781 5779 5777 5774 5772 5770 5768 5766 5764 5762 5760 5758 5756 5754 5752 5750 5748 5747 5745 5744 5742 5741 5739 5739 5738 5738 5737 5737 5736
5807 5804 5802 5800 5798 5796 5793 5791 5788 5786 5783 5780 5778 5776 5774 5771 5769 5767 5764 5762 5760 5758 5755 5753 5751 5749 5747 5745 5743 5741 5739 5738 5736 5735 5733 5732 5731 5730 5729 5728 5728 5727 5727
5800 5797 5795 5793 5790 5788 5786 5783 5780 5777 5775 5773 5770 5768 5766 5764 5761 5759 5757 5754 5752 5749 5747 5745 5743 5740 5738 5736 5734 5732 5731 5729 5727 5726 5724 5723 5722 5721 5720 5719 5719 5718 5718
5792 5790 5788 5785 5783 5781 5778 5775 5772 5770 5767 5765 5763 5760 5758 5756 5753 5751 5749 5746 5743 5741 5738 5736 5734 5731 5729 5727 5725 5723 5721 5720 5718 5717 5715 5714 5713 5711 5710 5710 5709 5708 5708
5785 5782 5780 5777 5775 5773 5770 5768 5765 5762 5760 5757 5755 5753 5750 5748 5745 5743 5740 5738 5735 5732 5730 5728 5725 5723 5720 5718 5716 5714 5712 5710 5709 5707 5706 5704 5703 5702 5701 5700 5699 5699 5698
5777 5774 5772 5769 5766 5764 5762 5759 5757 5754 5752 5749 5747 5744 5742 5740 5737 5734 5732 5729 5727 5724 5722 5719 5717 5714 5712 5709 5707 5705 5703 5701 5699 5697 5695 5694 5693 5692 5691 5691 5690 5689 5688
5768 5766 5763 5761 5758 5756 5753 5751 5748 5746 5743 5741 5738 5736 5733 5731 5728 5726 5723 5721 5719 5716 5713 5711 5708 5706 5703 5700 5698 5695 5693 5691 5689 5687 5685 5684 5683 5682 5682 5681 5680 5679 5678
5759 5757 5754 5752 5749 5747 5744 5742 5739 5737 5734 5732 5730 5727 5725 5722 5720 5718 5715 5713 5711 5708 5705 5703 5700 5697 5694 5691 5689 5686 5683 5681 5679 5677 5675 5674 5673 5673 5672 5671 5670 5669 5668
5750 5748 5745 5743 5740 5737 5735 5733 5730 5728 5725 5723 5721 5718 5716 5714 5712 5709 5707 5704 5702 5700 5697 5695 5692 5689 5686 5683 5680 5677 5674 5672 5670 5667 5666 5664 5663 5662 5662 5661 5661 5659 5658
5741 5739 5736 5733 5731 5728 5726 5723 5721 5719 5716 5714 5712 5709 5707 5705 5703 5701 5698 5696 5693 5691 5688 5686 5683 5680 5677 5674 5671 5669 5666 5663 5661 5658 5657 5655 5654 5652 5652 5652 5651 5649 5648
5733 5730 5727 5724 5722 5719 5717 5715 5712 5710 5707 5705 5703 5701 5699 5696 5694 5692 5690 5687 5685 5682 5679 5677 5674 5671 5668 5666 5663 5660 5657 5655 5652 5650 5648 5647 5646 5644 5643 5642 5641 5640 5639
5724 5721 5719 5716 5713 5711 5708 5706 5704 5701 5698 5696 5694 5692 5690 5688 5685 5683 5681 5678 5675 5673 5670 5668 5665 5663 5660 5657 5655 5651 5649 5646 5644 5642 5640 5638 5637 5635 5634 5633 5632 5630 5629
5716 5713 5710 5708 5705 5702 5700 5697 5695 5692 5690 5687 5685 5683 5681 5678 5676 5674 5671 5669 5666 5664 5661 5659 5656 5654 5651 5649 5646 5643 5640 5637 5635 5633 5631 5629 5628 5627 5625 5624 5623 5621 5620
5708 5705 5702 5699 5697 5694 5691 5688 5686 5684 5681 5679 5676 5674 5671 5669 5667 5665 5662 5660 5658 5655 5653 5650 5648 5645 5642 5640 5637 5634 5632 5629 5627 5624 5622 5621 5619 5618 5617 5615 5614 5613 5611
Wind_Speed
16 16 17 17 18 17 17 17 17 18 18 17 17 17 16 16 16 16 17 17 17 17 18 18 18 19 19 20 20 21 21 21 21 20 21 21 21 22 22 22 22 22 22
16 17 18 18 18 18 18 18 18 18 18 18 18 17 17 17 18 18 18 19 19 19 19 19 19 20 20 21 21 21 22 22 22 22 22 23 23 23 24 24 23 23 23
17 18 19 19 19 19 19 19 19 19 19 19 18 18 18 19 19 19 20 20 21 21 21 21 22 22 22 23 23 23 23 23 23 24 24 24 25 25 25 25 25 25 25
19 20 21 21 21 20 20 20 20 20 20 21 21 21 21 21 21 22 22 22 23 23 23 23 24 24 24 24 25 25 25 25 26 26 25 26 26 26 26 26 26 26 26
21 21 22 21 21 22 22 21 22 22 22 23 23 23 23 23 23 24 24 24 24 24 25 26 26 26 26 26 26 27 27 27 27 27 27 27 27 27 27 26 26 27 27
22 23 23 22 22 22 23 23 23 24 23 24 24 24 24 24 25 25 25 26 26 25 26 26 27 27 27 28 28 28 28 28 28 28 28 28 28 28 28 27 27 27 27
24 25 25 25 25 25 25 25 26 26 25 25 25 25 25 26 26 26 26 27 27 27 27 27 27 27 28 29 29 29 29 29 30 30 30 30 30 30 30 29 29 29 28
25 26 26 26 26 26 26 26 26 26 27 27 27 27 27 27 27 28 27 27 27 27 28 28 28 29 29 29 30 29 29 29 30 31 31 30 30 31 31 30 30 30 29
25 26 26 26 26 27 27 27 27 27 28 28 28 27 27 27 28 28 27 27 27 28 28 29 29 30 30 30 31 31 30 30 30 31 31 31 31 31 31 31 30 30 30
26 26 26 26 26 26 27 27 28 28 28 28 28 28 28 28 27 27 26 26 27 27 28 29 29 29 29 30 31 31 31 31 31 30 30 31 30 30 30 31 31 31 31
26 26 26 26 26 26 26 26 27 28 28 29 29 28 28 28 27 27 28 28 27 28 28 28 28 29 30 30 31 32 32 31 30 30 30 31 31 31 31 31 31 31 32
27 27 26 26 26 25 26 27 28 28 29 29 28 28 28 28 27 28 28 28 28 28 28 29 29 30 31 31 31 31 31 31 31 30 30 30 30 30 31 30 31 31 31
28 27 26 26 26 26 27 28 28 28 28 28 28 28 27 27 28 28 28 28 29 29 29 30 30 30 30 31 31 31 31 31 31 31 30 29 28 28 30 31 30 30 30
27 26 26 27 27 27 28 29 29 29 29 28 28 28 28 28 28 28 29 29 29 29 30 30 30 31 31 31 31 31 30 30 30 30 30 29 29 28 29 29 29 29 29
27 27 28 28 29 29 29 30 30 28 28 28 28 28 28 28 28 29 29 29 29 29 29 29 29 30 31 31 31 31 30 29 29 30 30 30 29 29 29 29 29 28 28
29 29 29 30 30 30 30 30 30 29 28 28 28 28 28 29 29 29 29 29 29 29 29 29 30 30 31 31 31 30 30 30 30 30 31 30 30 30 29 29 29 29 29
30 30 30 30 31 30 30 30 30 29 28 28 29 29 29 28 29 29 29 29 29 29 29 29 29 29 29 29 29 30 30 31 31 32 32 31 30 30 30 29 29 29 29
31 31 31 31 31 31 31 31 31 30 30 29 29 29 29 29 29 29 29 29 29 29 29 29 29 29 29 29 29 29 30 30 30 31 31 31 31 30 29 29 28 29 29
32 32 32 32 32 31 31 31 31 31 31 31 30 30 30 30 30 30 30 30 29 29 29 29 29 29 29 29 29 29 30 30 30 31 31 31 30 29 29 28 28 29 29
32 32 32 32 32 32 32 32 31 31 32 31 31 30 30 29 29 29 29 30 30 29 29 29 29 29 30 29 29 30 30 30 30 30 31 31 30 29 28 28 29 29 28
32 32 32 33 32 32 33 32 32 32 31 31 31 30 29 29 29 29 29 29 29 29 29 29 29 30 30 29 29 29 29 29 29 29 28 28 28 28 28 28 29 29 29
32 32 32 32 32 32 32 32 32 31 31 31 30 29 29 29 29 28 28 28 28 29 29 29 29 30 30 29 29 29 29 29 29 28 27 27 27 27 27 27 28 28 29
31 31 32 32 32 31 30 30 30 30 30 30 30 29 29 28 28 28 28 28 29 29 29 29 29 30 29 29 29 28 28 28 28 28 28 27 27 28 27 27 27 27 27
30 31 31 31 31 30 29 30 30 30 30 30 29 29 29 28 28 29 29 29 29 29 29 29 29 29 29 28 29 29 29 28 28 28 28 28 28 27 26 26 26 27 27
29 30 30 29 29 29 30 30 30 29 29 29 29 29 29 29 29 29 28 29 29 29 29 29 29 29 28 28 29 29 28 28 27 27 27 27 27 26 25 25 27 27 28
29 29 29 29 29 29 29 29 29 29 28 28 28 28 28 28 28 28 28 28 28 29 28 28 28 28 27 28 28 28 27 27 27 26 27 26 26 25 25 26 27 27 27
Wind_Direction
309 309 309 309 311 310 308 308 309 307 304 302 303 300 295 293 294 293 289 288 286 286 286 286 283 281 282 282 283 283 283 282 279 278 278 278 278 277 278 279 279 281 281
306 308 307 306 305 306 306 305 306 308 306 300 298 297 294 292 292 291 290 289 288 289 288 287 287 285 283 282 283 284 283 281 280 280 280 280 279 279 280 280 280 282 281
303 305 306 304 302 302 302 303 303 305 306 301 297 295 296 295 295 290 287 286 287 288 288 287 288 288 285 283 283 284 284 282 281 280 281 280 280 280 280 280 280 281 281
301 302 302 302 301 301 301 301 302 303 304 302 298 294 292 293 293 292 289 285 285 285 286 287 287 288 287 284 284 283 283 282 282 281 280 280 280 280 280 280 280 280 280
300 301 303 302 301 300 300 300 300 301 302 302 300 296 294 293 291 290 290 289 287 287 286 286 286 287 287 286 285 283 282 282 282 281 281 281 280 279 280 281 281 280 280
300 301 301 301 301 301 300 300 300 300 300 300 299 297 294 293 292 290 289 288 288 288 287 287 285 286 288 287 285 283 282 282 282 282 282 282 281 280 280 280 282 281 281
301 300 300 299 299 299 299 299 299 300 300 298 298 297 296 294 292 292 290 287 286 286 287 288 287 287 287 289 285 283 283 283 283 283 283 282 281 280 280 280 281 282 282
302 301 298 297 296 297 298 298 298 298 299 299 298 297 296 296 296 295 292 289 286 285 284 285 287 287 287 288 289 286 285 285 283 282 281 280 280 279 279 279 280 281 282
298 299 298 298 297 296 296 297 297 297 299 298 298 298 297 297 298 296 292 290 288 287 286 285 286 286 288 289 289 289 287 287 285 284 282 280 278 278 278 278 279 279 279
296 297 297 297 297 297 296 296 296 296 298 298 297 297 298 300 299 295 293 292 291 290 289 289 288 287 288 289 288 287 288 288 286 284 283 281 279 278 278 278 279 279 279
296 297 297 296 295 295 296 297 298 299 299 299 298 297 297 300 299 298 295 293 293 291 289 289 290 289 289 289 287 287 287 287 287 285 283 281 279 276 276 276 277 278 278
295 295 296 296 295 295 295 296 297 298 297 298 298 297 297 298 297 298 297 295 294 293 291 290 290 290 289 289 288 287 286 286 287 287 287 284 280 277 275 275 276 277 278
294 293 294 294 294 295 296 296 297 297 297 296 296 296 296 297 298 298 297 297 296 293 292 291 291 291 290 289 288 286 286 286 287 287 288 288 285 282 278 275 275 276 276
295 296 296 296 295 295 295 296 296 297 297 296 295 296 298 299 299 297 296 295 296 295 294 293 292 292 291 290 290 289 288 287 287 286 286 286 285 284 281 279 277 277 276
297 297 297 297 297 296 296 296 297 299 299 297 295 296 296 297 297 298 298 295 296 296 296 296 295 293 292 291 291 290 288 287 286 285 285 284 284 284 282 281 280 281 281
295 296 297 296 296 296 297 298 297 296 296 296 296 296 295 295 295 296 298 298 298 297 296 296 295 294 293 291 290 290 289 288 287 286 285 284 284 283 282 281 280 281 281
295 296 298 297 296 297 297 297 296 297 297 296 296 295 295 296 295 295 296 298 299 298 297 297 297 296 296 295 293 291 289 288 287 287 286 284 284 285 284 281 280 279 280
295 297 298 298 297 298 298 296 295 296 297 296 296 295 295 295 295 296 296 297 298 299 299 299 299 299 298 298 295 292 290 288 287 287 286 285 284 284 284 282 280 280 280
296 297 298 298 298 298 298 297 296 296 296 296 296 296 295 295 294 294 296 298 298 299 300 300 300 300 300 298 297 294 292 290 288 288 286 284 283 283 283 282 281 282 282
296 296 296 297 297 296 296 296 295 295 295 296 296 296 295 295 294 294 295 297 298 298 299 300 301 301 302 301 298 296 294 291 289 289 288 284 281 281 282 282 282 283 283
296 296 296 296 296 295 295 295 295 295 294 294 294 294 294 294 294 295 296 296 296 297 298 298 299 300 301 301 300 299 298 295 292 290 288 286 283 281 282 283 284 285 285
297 298 298 297 296 296 296 295 295 294 293 293 292 292 293 295 295 296 296 297 297 297 297 299 301 301 300 300 300 300 299 297 294 291 288 287 287 285 283 283 285 285 285
299 298 298 298 298 297 295 294 294 294 294 293 292 292 293 295 295 295 295 295 295 297 298 299 299 300 300 299 300 300 300 299 296 292 288 286 286 285 284 283 285 286 286
299 298 297 296 297 296 295 294 294 294 294 294 295 294 294 294 295 296 296 296 296 297 297 298 299 300 299 300 300 300 298 298 297 294 291 289 287 286 286 285 285 285 286
299 298 298 298 297 296 296 297 297 296 296 296 296 295 295 296 297 298 298 297 297 298 298 298 299 301 300 300 300 300 299 298 295 293 291 290 288 286 287 287 287 286 286
299 297 297 297 297 296 297 297 297 297 296 297 298 298 297 298 299 299 298 298 297 298 299 299 299 299 300 301 301 299 299 297 295 294 293 291 288 288 289 288 288 289 289